Wind_Speed
43 40 40 44 44 39 40 47 58 70 82 85 80 79 81 77 71 70 69 69 69 63 58 62 67 68 70 73 73 68 64 64 63 60 59 59 58 55 52 51 50 48 47 46 43 42 41 41 42 42 42 43 43 43 43 43 43 42 40 40 40 39 39 40 40 40 39 39 39 39 38 37 36 35 35 34 33 33 33 32 32 32 31 31 30
43 40 38 43 45 40 38 43 52 64 77 86 84 80 81 79 73 71 73 74 71 66 59 60 66 68 69 73 74 72 66 64 64 62 60 61 61 58 53 52 52 50 48 47 46 43 41 41 41 42 42 43 43 44 44 43 43 42 41 41 40 40 41 41 41 40 38 37 36 34 33 33 32 32 33 32 32 32 32 31 31 31 30 30 30
42 40 37 40 45 42 37 39 48 59 71 83 88 84 80 79 75 71 74 77 75 69 63 62 67 70 71 72 73 73 69 65 64 64 62 62 62 60 57 55 52 51 49 48 47 46 45 44 44 44 43 43 44 44 44 44 43 42 41 41 40 41 41 40 39 39 37 35 35 34 33 32 32 32 32 32 32 32 31 31 31 31 31 31 31
42 39 37 38 43 44 39 38 44 55 66 78 87 87 80 78 77 73 74 78 79 74 66 64 70 71 71 74 74 72 71 68 66 65 63 64 63 60 59 57 54 52 50 49 48 48 47 47 46 45 45 45 46 46 46 45 43 42 41 41 40 40 39 38 38 37 35 35 34 34 33 33 33 33 33 32 32 32 31 32 32 32 32 33 33
41 38 36 37 41 42 40 38 42 51 64 75 83 86 82 78 77 74 73 77 80 79 71 66 71 74 71 73 74 73 71 68 67 66 64 64 65 61 59 58 57 55 52 50 49 49 48 47 46 46 46 47 48 47 46 45 44 43 42 41 40 39 37 37 36 35 35 34 34 33 33 33 33 33 33 33 33 33 33 33 33 34 34 34 34
43 40 36 37 41 42 39 38 41 48 61 73 80 84 82 78 79 76 73 76 80 82 77 69 69 73 72 72 74 73 72 69 67 67 65 63 65 63 60 59 59 58 55 52 52 51 49 47 47 47 48 48 48 47 46 45 44 44 42 41 39 38 36 35 35 35 34 33 33 33 32 32 32 32 32 32 33 33 33 33 34 34 35 35 36
44 44 41 38 39 42 40 38 42 47 57 69 77 82 81 78 79 78 74 75 78 81 81 74 70 71 70 71 73 72 71 70 68 67 67 65 65 65 62 61 61 59 57 55 54 54 52 50 49 49 48 47 47 46 46 45 45 44 42 41 40 38 36 34 33 33 32 32 32 31 31 30 30 31 31 32 32 32 31 31 33 34 35 36 36
43 44 46 43 40 42 42 38 41 47 54 64 73 79 81 79 79 80 77 75 74 77 79 77 75 75 71 69 71 71 71 71 70 70 70 67 67 68 66 65 64 62 60 58 57 56 54 52 51 51 49 48 48 48 47 46 45 44 44 43 42 40 38 35 34 32 32 31 31 30 30 30 29 29 29 29 27 26 27 29 31 33 35 36 36
48 47 49 48 43 41 42 40 41 46 51 60 68 74 79 80 80 81 80 76 71 72 77 77 74 78 77 71 70 71 72 73 71 71 73 70 69 69 69 68 66 63 61 61 60 58 56 54 53 52 51 51 51 51 49 47 46 45 45 46 44 43 41 38 36 34 33 32 31 31 30 29 28 27 26 25 24 26 29 32 33 35 36 36 36
53 53 52 50 46 43 42 41 41 47 51 56 64 71 76 80 82 83 83 78 70 70 78 80 74 74 77 76 74 71 71 74 74 73 74 73 71 72 70 68 67 64 63 63 62 59 58 56 55 55 54 54 53 52 51 49 48 48 49 49 48 45 44 41 39 37 35 34 33 31 30 29 29 28 27 28 31 33 33 33 34 36 36 36 36
56 57 56 50 46 44 42 42 42 48 52 55 62 69 73 78 83 84 84 81 75 72 78 83 79 74 73 75 76 73 70 73 76 76 76 75 74 74 72 70 68 66 66 66 64 61 60 59 57 57 56 55 55 53 52 52 51 52 53 53 52 50 47 45 43 41 39 38 37 36 34 34 33 33 33 34 35 35 35 36 37 37 36 36 37
57 60 58 48 44 44 42 41 43 48 53 55 61 68 72 77 81 83 83 82 79 75 77 83 84 79 74 73 75 73 71 73 77 78 79 77 75 75 73 70 69 68 68 67 65 63 63 61 60 59 58 57 56 55 55 54 53 54 55 56 55 53 51 49 47 46 45 43 42 41 40 39 38 39 39 39 39 39 39 40 40 40 40 40 41
58 58 54 46 42 42 41 40 44 50 55 56 61 67 72 76 79 81 82 82 81 77 78 82 85 83 81 77 75 73 72 75 78 79 79 78 76 76 75 72 70 69 68 67 66 66 65 64 63 62 60 60 59 58 57 56 55 55 57 58 57 56 54 52 51 50 49 47 46 45 44 43 43 43 43 43 44 45 45 44 44 43 43 42 43
54 52 47 42 40 41 39 39 44 51 57 57 61 67 70 75 78 79 80 82 81 77 77 81 84 84 84 81 78 75 74 76 79 80 80 80 78 77 76 74 72 71 69 67 67 68 68 67 66 65 63 62 61 59 58 57 56 57 57 59 59 59 57 55 54 53 52 51 50 48 46 46 45 45 46 48 48 48 48 48 47 46 45 45 46
47 45 40 38 39 39 37 38 44 51 58 58 61 67 70 75 77 78 80 80 78 76 75 78 80 82 82 82 80 76 73 75 78 80 80 80 79 78 78 77 75 72 70 69 69 68 68 68 67 66 65 64 62 61 60 58 58 57 58 58 59 59 58 57 55 54 53 51 49 47 45 46 47 49 52 52 51 51 51 51 50 50 50 49 49
42 39 35 35 37 37 36 38 43 51 58 58 61 66 70 74 76 76 78 79 76 74 74 75 77 78 79 82 81 77 73 75 79 80 80 79 79 79 79 79 77 74 72 71 71 69 68 68 68 67 66 65 64 63 62 61 60 59 59 59 59 59 58 57 55 54 52 51 49 46 46 47 49 51 54 53 52 53 55 55 55 55 54 54 54
35 32 31 33 34 34 35 37 42 51 56 56 60 66 69 73 75 74 76 77 74 73 74 74 74 74 76 79 79 77 73 75 79 81 80 79 80 80 79 78 76 75 73 72 71 70 69 70 69 67 66 67 67 66 64 63 62 61 60 60 60 59 58 57 56 54 52 51 50 50 51 51 51 51 53 55 56 56 57 57 56 55 54 54 54
27 27 29 30 31 32 33 35 41 51 55 54 59 66 68 72 73 72 74 77 75 72 72 74 73 72 74 76 78 76 74 75 79 81 81 81 80 80 78 77 75 74 73 74 73 71 71 72 70 69 68 67 66 66 65 63 62 62 61 60 60 60 59 58 57 54 52 51 52 53 53 53 53 53 54 57 58 58 57 54 52 52 52 51 50
22 23 25 26 27 29 31 33 41 50 54 54 59 64 67 70 71 70 72 76 76 73 73 74 73 71 71 73 76 76 74 75 79 81 80 80 80 79 78 77 76 74 73 74 74 74 74 73 72 72 70 68 66 66 65 64 63 63 62 61 61 60 60 59 57 54 52 51 51 51 51 53 54 54 56 58 59 58 54 51 49 50 50 50 51
19 20 21 22 23 26 27 31 41 51 54 54 58 62 66 68 69 69 72 76 78 77 75 75 73 69 69 71 71 70 69 71 76 79 79 79 78 78 78 77 75 74 73 73 74 75 75 74 73 73 72 69 67 65 64 64 64 64 63 62 61 60 60 59 56 54 53 52 51 51 52 53 54 55 56 57 57 55 52 50 48 47 47 48 50
17 18 18 18 20 22 24 30 41 50 52 52 55 60 64 65 66 68 72 74 77 77 75 73 69 66 67 69 68 67 67 68 71 75 78 79 78 78 77 75 74 74 73 72 73 74 74 73 73 73 72 69 67 66 65 65 64 64 63 62 60 59 59 58 57 56 55 54 54 55 56 56 57 57 57 55 53 52 50 48 45 43 45 46 45
17 16 15 15 17 19 21 29 41 48 49 51 53 57 61 63 63 66 70 72 74 75 73 70 67 64 64 66 67 67 67 66 68 72 75 78 79 78 76 74 73 73 73 73 72 73 73 72 71 71 70 68 67 67 67 66 64 64 62 60 58 59 59 59 59 58 57 57 57 58 58 59 60 59 57 55 53 51 49 47 44 44 45 46 44
18 15 13 14 16 17 20 30 41 45 47 49 52 55 59 60 61 62 65 68 70 71 71 69 67 65 64 65 67 67 67 67 68 70 73 75 77 78 77 74 73 72 72 72 71 71 71 70 70 70 70 68 68 69 68 67 66 65 62 59 58 58 60 62 61 60 59 59 59 60 61 61 61 59 57 55 53 50 48 47 46 46 47 47 47
17 13 11 13 16 18 21 30 40 43 44 46 50 55 58 59 60 60 61 63 64 65 66 66 65 64 64 65 67 67 67 68 67 68 69 71 72 75 76 76 74 72 71 70 70 70 70 70 69 69 69 69 70 70 68 67 67 66 64 63 61 60 62 64 63 62 62 62 62 62 63 62 60 58 56 54 52 50 49 50 50 49 49 50 50
13 9 9 13 16 18 21 28 37 41 42 44 48 54 58 58 58 58 58 60 61 61 61 62 62 63 62 63 65 65 66 67 67 67 67 68 69 71 75 77 75 72 71 70 69 69 69 70 70 69 68 69 70 70 69 68 67 66 65 66 65 64 64 64 63 63 64 63 63 63 62 61 60 58 55 54 55 55 54 54 52 51 51 52 52
7 2 8 12 16 18 20 25 33 40 42 42 45 53 58 58 56 54 54 56 59 60 60 60 60 60 61 61 62 63 64 66 67 66 66 67 67 68 72 76 76 73 72 71 70 69 69 69 70 70 69 70 71 70 69 68 68 67 67 67 67 67 67 67 66 66 66 65 63 62 61 60 60 59 57 58 60 60 57 55 54 53 53 53 53
5 3 6 9 12 15 18 22 31 38 41 41 44 51 56 56 53 51 50 52 55 58 59 59 59 58 59 60 61 62 63 65 67 66 65 64 64 65 68 73 75 74 72 72 71 70 69 69 70 71 70 70 71 69 67 68 70 70 70 70 69 69 70 69 67 67 66 66 64 61 60 60 61 61 61 62 64 62 59 57 57 56 55 55 55
2 2 3 6 9 13 17 21 27 34 39 41 43 49 54 54 51 50 48 49 50 53 55 57 59 57 56 58 60 61 63 64 65 66 65 64 65 65 67 71 74 74 73 72 72 71 71 70 71 72 72 71 70 68 67 70 72 74 74 73 73 72 72 71 69 69 69 69 65 62 62 63 64 64 64 64 64 63 61 60 60 59 58 58 58
5 6 7 7 8 12 20 24 27 31 37 41 43 46 50 51 50 48 47 46 46 47 50 54 57 58 56 56 57 59 61 63 63 65 67 68 69 69 69 72 75 75 74 74 73 73 73 72 73 74 73 71 70 69 68 70 73 76 77 76 75 75 75 74 74 73 72 70 67 65 65 66 66 65 64 64 65 65 64 64 64 62 61 60 60
10 10 11 9 7 13 22 28 29 32 36 40 43 45 47 49 48 45 44 44 44 45 47 50 54 55 55 54 56 58 60 61 63 66 69 72 73 73 72 74 77 77 76 75 74 74 73 73 74 74 74 72 71 70 69 70 72 75 77 77 77 78 78 77 75 73 71 69 68 67 68 68 67 65 64 66 69 69 68 68 66 64 63 63 63
12 13 13 9 7 13 23 29 32 35 37 40 43 44 44 44 43 42 42 44 44 44 46 47 48 49 50 52 54 57 58 60 63 66 68 71 74 75 73 74 76 77 75 74 73 73 72 72 73 73 72 71 69 68 68 69 71 74 76 77 78 78 78 76 73 71 71 70 70 70 70 69 67 65 64 67 72 74 73 71 69 66 66 66 66
14 14 14 10 8 13 22 29 33 35 36 38 41 42 40 39 38 38 39 41 43 44 45 46 46 46 47 50 53 54 55 56 59 62 65 68 71 72 71 72 73 74 73 72 72 71 69 69 68 68 68 68 67 67 67 69 73 76 77 78 78 78 77 73 70 69 71 72 71 71 71 69 68 67 66 69 74 77 75 72 70 69 68 69 68
16 15 14 12 11 12 19 27 32 34 35 36 39 41 40 38 37 38 37 36 36 37 39 41 43 45 47 50 52 53 53 53 55 59 62 65 67 69 69 69 70 71 70 69 68 67 67 66 65 65 64 65 66 67 68 71 74 77 78 78 78 76 73 70 70 71 73 73 72 71 70 69 68 67 67 70 76 77 75 73 72 71 71 71 70
17 15 13 13 14 15 17 23 29 33 34 36 38 41 41 39 37 37 36 34 32 31 33 35 39 44 48 50 52 53 54 54 55 58 62 64 66 68 68 68 68 68 68 66 64 64 64 65 65 65 65 66 67 69 70 73 75 77 77 77 75 73 71 71 73 74 75 74 72 70 70 69 67 67 68 72 76 75 73 73 73 73 72 71 70
16 15 13 13 15 17 18 21 25 29 33 36 39 41 41 40 39 37 35 33 31 31 32 34 37 41 46 50 53 55 56 57 57 59 62 64 66 67 68 68 67 65 63 62 61 61 62 63 64 66 66 68 69 71 73 75 76 77 76 75 73 72 72 73 74 74 74 73 71 69 69 68 66 66 69 74 76 75 73 73 73 72 70 70 70
17 16 15 13 14 17 19 22 24 27 31 36 39 41 41 41 41 40 38 35 31 29 31 33 34 36 41 47 51 55 57 58 58 60 62 64 66 67 67 66 65 63 61 60 59 59 60 61 63 65 67 68 70 71 72 74 75 75 75 74 73 72 72 73 73 73 72 71 70 70 69 67 67 69 73 75 74 72 71 71 70 69 69 70 71
18 17 16 15 14 15 18 22 24 27 31 35 38 40 41 41 41 42 41 39 34 29 29 30 31 32 34 39 45 51 56 58 58 60 63 65 67 67 67 66 65 63 62 60 59 59 60 61 63 65 67 68 69 70 71 72 73 74 74 74 73 72 72 72 72 72 71 71 71 70 69 68 69 71 71 70 69 68 68 69 69 69 70 71 72
16 17 17 17 15 14 16 20 23 27 31 33 34 35 39 42 42 43 43 42 39 35 34 35 36 36 37 38 41 45 51 56 58 59 62 66 67 67 66 66 66 64 63 61 60 60 60 61 62 64 66 67 68 69 70 71 72 73 73 73 72 72 72 72 72 72 72 72 71 71 70 70 70 69 68 67 67 68 68 69 69 69 70 71 71
14 14 15 17 17 16 16 19 23 27 30 31 29 31 36 41 43 44 43 42 42 41 41 40 39 38 39 41 43 44 47 51 56 58 59 61 63 64 64 65 65 65 65 64 63 62 61 61 62 64 65 67 68 70 71 72 72 73 72 72 72 72 71 71 71 72 72 72 72 73 73 72 70 69 69 68 69 69 69 69 69 69 69 69 69
11 10 12 15 17 18 18 20 23 26 28 30 30 32 35 39 42 43 44 44 44 44 43 41 39 37 35 37 42 46 48 48 51 55 57 58 59 61 63 64 65 64 64 64 63 62 62 62 63 64 66 68 69 71 72 73 73 72 71 70 71 71 69 70 71 73 74 75 75 75 73 72 70 70 69 69 69 70 70 70 69 69 69 69 70
7 3 6 12 18 19 20 22 25 26 27 28 30 32 34 36 37 40 43 45 46 46 45 43 41 39 36 33 36 43 49 50 50 52 55 58 60 61 63 64 65 64 63 63 62 62 62 62 63 64 66 68 70 72 73 74 73 71 69 68 69 69 69 70 73 75 76 77 77 75 73 71 70 69 69 69 69 69 69 68 68 69 70 70 71
10 7 5 7 13 18 20 22 25 28 28 28 29 31 32 33 34 35 37 40 42 44 45 44 43 41 39 36 34 37 43 49 52 53 54 56 58 61 63 64 64 64 64 63 64 64 63 63 64 64 66 68 70 72 74 74 72 69 68 68 68 69 69 70 73 75 75 75 73 72 71 70 69 68 69 70 70 69 69 69 69 69 70 71 71
12 11 11 9 7 11 17 20 23 26 28 29 31 33 35 36 36 35 36 37 38 39 42 43 43 42 42 41 39 37 38 42 48 53 57 58 58 59 61 62 63 64 64 65 66 66 66 65 65 65 66 69 71 73 75 74 71 70 70 70 70 71 72 72 73 73 73 71 70 69 69 69 69 70 72 74 73 71 69 68 68 68 70 71 71
14 12 12 13 12 8 9 12 16 20 24 26 29 31 34 36 37 38 38 39 40 41 42 43 44 44 44 43 43 42 40 40 42 47 53 59 61 62 62 62 63 64 65 66 67 67 68 67 67 66 67 69 71 74 76 75 74 74 75 74 73 74 76 76 75 74 72 71 71 71 71 71 72 73 74 75 74 71 68 68 68 69 71 73 74
13 12 12 12 13 12 10 8 9 12 15 17 19 22 25 29 33 35 36 37 38 40 41 42 44 45 46 46 46 45 45 44 44 45 48 54 59 63 65 66 67 67 68 69 70 70 70 69 69 68 68 69 71 74 76 78 78 78 79 78 76 76 76 76 76 75 75 75 75 75 75 75 74 74 74 74 72 71 70 70 71 72 74 76 78
12 11 10 9 10 11 11 11 10 10 10 11 12 14 16 19 23 27 30 32 34 35 36 38 39 41 43 45 46 47 47 47 48 48 49 51 54 59 63 66 68 69 70 70 71 71 71 71 70 70 70 70 71 74 77 79 80 81 81 81 80 79 79 78 78 78 78 78 78 77 77 77 77 77 76 74 74 74 74 75 76 78 79 81 82
12 12 10 8 6 6 8 9 10 10 10 9 10 11 12 13 15 18 21 24 27 29 31 33 35 37 39 41 42 44 45 45 46 46 46 47 48 50 54 58 61 64 67 68 69 69 70 70 71 71 71 71 72 73 75 78 79 81 81 82 82 82 82 82 82 82 81 80 80 80 80 80 81 81 79 78 78 79 81 81 82 83 84 84 85
13 13 12 10 7 4 3 4 5 6 7 7 7 8 9 10 11 12 14 16 18 21 24 27 30 33 36 37 39 40 42 42 43 43 43 44 44 44 45 47 50 53 57 60 63 66 67 69 70 71 72 73 73 74 76 77 79 80 81 82 82 82 82 82 82 82 82 82 82 82 82 83 84 84 84 84 85 85 86 86 86 86 86 87 87
16 14 13 13 11 9 6 3 1 0 2 3 4 5 6 7 8 9 10 11 13 15 17 20 22 25 28 31 34 35 37 38 39 40 40 41 41 41 41 42 43 45 47 51 54 58 61 64 67 69 71 73 74 75 76 78 79 80 81 81 82 82 82 83 83 83 83 83 84 85 86 86 87 87 88 88 89 89 89 89 89 89 89 90 90
20 18 15 14 13 12 11 9 7 5 4 4 4 4 5 6 7 8 9 10 12 13 15 16 17 19 21 23 25 27 29 31 32 34 35 36 36 36 37 38 39 41 43 45 48 51 55 58 61 64 67 70 72 74 75 77 79 80 82 83 84 85 85 86 86 86 86 87 87 88 90 91 91 91 91 91 91 91 92 91 91 91 92 92 92
25 23 20 18 16 15 14 12 11 10 9 8 7 7 7 7 8 8 10 11 13 14 16 17 17 18 19 20 21 22 23 24 26 27 29 30 31 32 33 34 36 37 39 41 43 46 49 52 56 59 62 65 68 70 72 75 77 80 82 84 85 86 87 87 87 88 88 89 89 90 91 91 91 91 90 91 91 91 92 92 92 92 92 92 91
Wind_Direction
304 298 286 284 285 280 269 250 233 225 221 218 217 218 218 219 219 218 217 213 209 209 214 220 219 218 220 223 224 220 213 210 211 209 209 211 211 210 209 209 209 209 210 210 210 211 209 205 206 209 210 209 208 207 208 208 206 204 203 203 204 206 206 208 211 214 214 212 212 213 215 216 218 219 221 222 223 225 228 230 231 231 231 231 231
303 301 289 283 284 281 271 257 239 227 221 218 217 217 217 218 217 217 217 213 210 208 210 218 220 218 219 221 223 222 215 211 211 210 209 210 211 210 208 210 211 209 208 210 210 209 207 208 209 209 210 210 209 207 207 207 206 205 205 206 208 209 209 210 211 213 215 215 216 218 218 217 217 218 219 220 221 223 225 227 229 229 229 229 230
302 302 293 285 285 282 273 260 245 231 222 218 217 216 216 216 215 215 216 214 211 209 209 215 219 219 219 220 222 222 217 212 211 210 209 209 210 209 208 209 211 210 209 209 209 208 207 209 210 210 210 210 209 208 207 206 206 206 207 208 209 210 211 210 210 211 213 213 214 215 215 215 215 216 217 219 220 222 223 224 225 226 226 227 229
303 303 297 289 286 284 276 261 247 235 224 218 217 217 216 215 212 212 214 214 212 211 211 212 215 217 219 219 221 221 217 213 212 210 208 208 208 207 207 207 209 212 211 209 209 209 209 210 211 210 209 208 208 207 207 207 207 207 209 209 209 210 211 210 209 210 210 210 211 212 212 213 214 215 216 217 219 221 222 222 222 222 223 225 227
303 304 301 291 287 287 279 262 248 237 226 219 218 218 217 214 211 209 211 213 212 213 215 215 212 214 217 218 220 221 217 213 213 212 208 208 207 205 205 206 209 213 213 210 210 211 211 211 212 211 209 209 208 207 207 208 208 207 208 208 209 210 210 209 208 207 208 208 209 211 212 212 214 215 216 216 217 218 219 220 220 221 223 224 226
300 303 302 292 286 288 282 264 248 237 228 221 218 219 218 214 210 208 209 210 211 212 215 217 215 214 216 217 219 220 218 213 213 213 210 208 207 206 205 206 209 212 212 210 211 212 212 212 213 213 211 210 209 209 210 210 208 207 206 206 208 209 208 208 207 206 206 207 208 209 210 212 214 215 216 216 216 217 218 219 221 223 225 226 226
294 297 299 293 286 285 284 267 247 236 228 222 218 218 218 214 210 209 208 207 209 211 213 217 218 216 215 216 218 219 217 213 212 212 211 209 208 207 206 207 210 211 211 211 212 213 213 212 212 214 213 212 212 211 211 210 208 207 206 205 206 206 206 206 206 205 205 205 206 207 208 210 212 214 216 217 218 217 218 219 222 224 227 228 229
289 292 295 292 284 281 282 271 248 235 228 222 218 216 217 214 209 208 208 207 207 210 211 213 218 219 216 216 217 218 217 213 211 212 211 209 209 209 207 207 209 210 211 212 213 214 214 213 213 214 214 214 214 213 213 212 210 209 209 207 206 204 204 204 204 204 204 205 205 205 206 209 211 212 215 218 220 220 221 222 224 226 228 230 230
286 289 291 288 280 276 278 273 251 234 227 221 217 215 215 214 209 207 208 207 209 212 211 211 215 218 218 218 217 217 217 212 210 212 213 210 210 211 209 207 208 209 210 213 213 214 214 215 215 216 215 215 216 216 216 215 213 212 212 211 209 207 206 204 203 205 206 205 205 205 206 208 210 212 215 218 223 225 224 224 225 227 228 230 230
283 286 288 284 275 271 273 272 254 233 224 220 215 213 213 213 210 207 207 208 212 215 213 211 213 215 216 218 218 218 217 212 209 211 213 211 209 211 210 208 207 208 210 213 213 213 214 215 215 216 217 217 217 217 216 215 213 214 215 216 214 212 211 208 206 207 208 208 208 209 210 211 211 213 214 216 221 224 224 224 225 227 229 229 230
281 284 286 280 268 265 268 269 255 233 222 217 213 210 211 211 210 210 209 210 213 216 212 211 213 214 213 215 217 219 218 213 209 209 212 211 210 210 210 208 206 207 210 212 212 212 214 215 216 217 217 217 217 218 217 215 214 214 215 217 216 215 214 213 213 213 213 212 211 213 215 216 215 216 216 217 221 224 225 225 227 228 230 231 232
280 282 283 275 260 258 262 265 254 233 219 215 210 207 208 208 209 210 210 210 213 213 210 210 212 213 212 213 215 216 217 214 210 208 210 211 211 211 211 209 207 207 209 210 210 212 214 215 217 217 217 218 217 217 217 217 215 215 216 218 218 216 215 215 216 218 218 217 216 216 218 219 219 219 219 220 223 225 227 228 229 229 229 229 230
280 279 278 269 253 250 256 261 252 231 217 212 208 204 205 206 207 209 209 210 213 211 208 209 211 212 213 214 215 215 217 215 210 208 210 211 212 213 212 210 208 207 208 208 209 210 212 214 216 217 217 218 218 218 218 218 218 218 218 219 219 219 218 217 217 219 220 221 221 219 219 220 223 223 222 222 224 227 229 230 230 230 229 229 229
279 275 271 260 247 246 250 256 249 229 214 210 206 203 203 204 205 207 207 209 212 210 207 207 209 211 212 215 216 216 217 215 211 209 210 211 212 213 214 214 211 207 207 208 209 210 211 213 215 216 217 218 219 219 219 219 220 220 220 221 221 221 221 220 220 221 223 225 226 224 222 221 223 225 225 224 225 228 230 230 230 230 229 229 229
279 273 265 251 241 243 246 250 246 227 213 208 205 202 201 201 202 205 206 207 209 207 205 205 208 210 212 214 216 216 216 215 212 210 211 212 211 213 215 216 214 211 208 208 209 210 212 214 215 216 217 218 219 220 220 220 221 222 223 224 225 226 225 225 225 226 228 230 233 234 232 229 227 226 228 228 227 227 229 230 230 230 229 230 230
280 269 256 240 237 240 242 244 242 225 212 207 204 201 200 199 200 202 204 205 205 203 202 204 207 210 212 213 215 215 215 215 214 212 212 213 213 214 215 216 216 214 211 209 208 209 211 214 215 217 218 219 219 219 220 220 221 222 223 225 227 228 229 230 230 231 232 234 236 237 238 237 234 232 232 233 232 231 232 232 232 232 232 233 233
277 261 244 233 234 237 238 241 237 222 210 206 203 201 199 198 199 201 203 204 202 200 200 202 205 209 211 212 214 215 216 216 216 213 212 213 214 215 215 215 215 215 215 212 210 210 212 213 214 215 217 219 220 220 219 220 221 222 223 225 227 229 231 232 232 232 233 234 235 236 237 237 238 238 237 237 236 236 237 237 237 237 238 238 239
269 251 236 230 233 235 235 237 231 216 207 204 202 200 200 199 199 200 202 202 201 199 199 201 203 208 211 211 212 215 216 217 217 215 212 212 215 216 216 216 216 216 216 215 213 211 213 214 214 214 216 218 221 221 221 221 222 223 224 225 227 230 231 233 233 233 234 235 236 238 238 239 240 240 239 240 240 240 240 241 241 241 242 243 244
264 247 235 231 233 232 232 232 223 211 204 202 201 199 199 198 199 201 202 202 201 200 200 202 204 208 211 211 211 213 215 216 217 215 213 212 215 217 217 217 217 217 217 217 216 214 214 215 215 215 216 217 220 221 222 223 224 225 226 227 228 230 232 233 234 234 235 236 237 238 240 242 243 242 240 242 243 242 243 243 243 244 244 244 244
268 251 241 235 232 229 229 226 215 206 201 200 198 197 197 197 199 202 202 201 201 201 203 205 205 207 210 212 212 213 215 217 218 217 215 214 215 217 218 218 219 218 218 219 219 218 217 217 218 218 218 218 220 221 222 224 225 226 227 229 230 231 232 233 234 234 234 235 235 236 238 240 242 242 242 244 245 245 245 246 246 247 247 248 248
280 265 251 241 232 228 225 218 208 202 199 198 196 194 195 196 199 202 202 202 201 201 203 206 206 206 208 210 212 214 217 218 219 219 217 215 215 217 219 219 220 220 220 220 220 220 221 221 221 221 220 219 221 221 222 223 225 226 228 229 230 231 232 234 234 234 234 234 235 236 237 237 239 240 240 241 243 244 246 247 248 249 251 252 253
295 281 262 245 233 223 217 208 202 200 199 197 194 193 193 195 199 202 202 203 203 202 204 206 206 205 206 209 211 214 217 220 221 221 220 219 217 217 218 219 221 222 222 222 222 222 223 224 225 226 224 221 221 223 223 223 224 225 227 229 230 231 232 234 235 235 235 236 236 237 238 239 238 238 239 239 240 241 243 245 246 248 251 253 252
304 290 266 243 226 212 205 199 196 197 196 193 192 191 191 194 199 201 201 203 204 205 206 207 207 207 208 209 211 214 217 219 221 223 222 222 220 219 218 218 220 222 223 224 225 225 225 225 227 229 228 225 223 224 225 225 225 225 226 228 232 234 235 235 235 236 236 236 236 237 238 238 238 238 239 239 239 241 243 245 246 248 250 252 251
309 291 257 230 211 198 195 194 193 194 193 190 190 189 189 194 200 201 201 202 203 205 206 207 207 209 210 212 213 214 216 218 221 224 224 224 223 222 220 219 219 221 223 225 226 227 227 228 228 229 230 230 230 229 228 227 227 226 225 224 227 232 236 237 237 238 238 237 238 238 238 237 237 237 238 238 238 241 243 244 245 246 248 250 250
319 287 231 205 194 187 189 192 193 193 190 188 188 189 189 194 199 201 201 202 203 205 205 205 206 208 210 212 214 215 217 219 221 223 225 226 226 226 224 222 220 221 222 224 226 228 229 229 229 229 229 231 233 234 233 230 228 227 225 224 224 229 234 237 238 239 239 238 239 239 238 237 236 236 235 236 238 241 242 243 244 245 247 249 250
345 251 189 180 181 186 193 196 196 195 191 188 187 189 190 193 197 200 202 203 205 206 206 206 207 209 210 212 214 216 218 219 219 222 224 227 228 229 227 224 221 221 222 223 225 227 228 230 231 230 229 229 231 234 234 232 230 228 227 226 226 229 233 237 239 240 240 239 239 239 238 237 236 236 236 237 239 241 242 243 244 246 248 250 251
45 116 162 172 183 197 208 206 199 196 194 191 188 188 190 192 195 198 201 203 206 208 208 207 208 211 213 214 215 217 218 217 217 219 222 226 228 229 228 225 222 222 222 224 225 226 228 229 231 231 231 229 230 231 231 229 230 230 230 230 230 230 232 234 237 239 241 241 240 239 238 237 237 238 238 238 239 242 244 244 245 247 248 250 251
71 131 184 199 207 215 216 207 198 195 194 190 187 187 187 190 194 198 201 203 206 208 209 209 209 211 214 216 217 218 218 218 218 219 221 225 228 229 227 224 222 223 224 225 226 227 228 228 229 230 231 230 230 230 230 229 231 232 232 232 233 233 233 233 234 236 238 240 239 237 237 237 237 238 238 239 240 243 245 245 246 247 248 250 251
238 227 224 227 231 223 210 200 195 194 190 186 184 185 186 189 194 198 201 203 204 207 209 209 209 211 214 217 218 218 219 219 220 221 222 225 227 229 227 224 223 225 226 226 226 227 227 227 228 229 230 230 230 230 230 230 232 233 233 233 233 233 234 235 235 235 237 239 239 238 237 237 236 235 237 239 242 244 245 245 245 247 248 250 252
249 240 237 237 234 219 207 197 192 192 189 184 182 183 184 189 194 198 200 202 204 206 207 207 207 210 213 215 216 217 218 219 221 222 223 225 227 228 227 225 225 226 227 227 227 227 227 227 228 228 229 228 228 229 230 230 232 233 234 234 234 234 235 236 237 237 238 239 239 239 238 237 236 234 236 239 242 244 246 246 246 247 249 252 253
252 247 244 239 226 217 207 195 189 191 190 186 183 181 182 187 193 197 200 204 207 208 208 207 207 209 212 213 213 214 216 217 219 221 223 225 227 228 228 227 227 228 228 228 228 228 228 227 228 228 229 228 227 228 229 231 233 234 235 236 237 238 238 239 240 240 240 240 240 239 238 237 236 236 236 238 242 244 245 246 247 248 251 253 255
256 252 246 234 215 214 208 196 190 191 193 190 186 183 181 183 188 193 198 202 205 207 208 207 207 208 211 212 212 212 214 216 218 221 223 226 227 228 228 227 227 228 228 229 229 229 229 228 229 230 230 230 229 229 229 230 232 234 236 237 238 239 241 242 242 241 241 241 241 241 239 239 239 238 237 239 242 245 246 247 248 250 252 255 257
261 258 251 233 214 211 210 204 198 197 197 196 191 186 183 183 186 189 194 198 201 203 204 205 206 207 208 209 210 211 211 214 218 222 224 225 226 227 227 227 227 227 228 229 230 230 230 229 229 229 230 230 230 230 231 232 232 234 236 237 238 239 240 241 241 241 241 242 242 242 241 241 241 241 240 240 242 245 247 249 250 252 254 257 258
261 257 250 232 215 210 210 210 208 207 206 203 196 188 185 186 187 189 193 195 197 199 200 201 203 205 205 206 208 209 210 212 216 221 223 225 225 226 227 227 227 227 229 230 231 232 231 231 230 229 228 228 228 229 231 233 234 235 236 237 238 238 239 239 239 240 241 242 242 243 243 243 244 243 242 242 243 247 250 251 253 255 257 258 259
257 248 241 229 216 211 210 212 215 214 212 207 198 189 186 188 190 192 196 199 200 201 200 200 201 203 204 205 206 208 210 212 214 218 221 223 224 225 226 227 227 228 229 230 231 232 232 232 231 230 229 229 229 229 230 232 233 235 237 238 238 238 238 239 240 241 242 243 244 244 245 246 245 243 242 243 247 250 253 254 256 258 259 259 259
258 247 236 226 218 215 214 216 218 217 212 205 197 189 187 189 192 194 197 202 204 202 198 197 198 201 205 208 209 210 211 212 214 218 221 223 224 224 225 226 227 227 229 230 231 232 233 232 232 231 231 230 231 231 231 232 234 235 237 238 238 239 239 240 242 243 244 245 246 246 246 245 244 243 243 246 249 252 253 255 256 257 258 258 258
265 253 239 228 221 218 215 216 218 216 210 203 197 192 190 192 194 196 199 203 206 205 202 201 202 203 206 210 213 214 214 214 215 218 220 222 223 224 225 225 226 227 229 229 230 231 232 233 233 233 232 232 232 233 233 234 235 236 237 238 239 239 241 242 244 245 245 246 246 247 246 245 244 244 246 248 250 252 253 255 256 256 256 257 257
277 260 246 232 221 215 212 211 213 211 207 203 201 201 200 198 198 200 203 204 204 206 210 211 212 212 213 215 216 217 217 217 217 218 219 221 222 223 224 226 227 228 229 230 231 232 233 234 234 234 234 234 233 234 234 235 236 236 237 238 239 241 242 244 245 245 246 246 246 245 244 243 244 245 247 249 250 252 254 254 255 255 256 257 258
295 269 249 231 216 208 206 207 208 208 206 204 205 210 211 208 204 205 207 205 202 204 209 211 211 212 214 218 220 220 220 220 220 220 221 222 223 224 225 227 228 228 229 231 232 233 234 235 235 235 235 235 234 234 235 236 236 237 239 240 241 242 244 245 246 247 246 244 243 242 243 245 246 247 248 249 252 253 254 254 254 255 256 257 258
307 274 246 229 217 208 205 206 206 206 207 208 211 215 216 214 210 208 208 207 206 207 209 211 213 214 214 216 219 221 221 222 222 223 223 223 224 225 227 228 229 230 231 232 233 234 235 236 237 237 236 235 235 235 235 236 237 238 240 241 242 244 245 245 246 246 245 243 243 245 247 248 249 249 250 252 254 254 254 253 254 255 255 256 257
341 299 227 217 214 209 205 205 205 205 206 211 215 218 220 219 216 213 211 211 212 213 213 213 215 218 219 217 217 219 221 223 224 225 224 224 225 226 227 229 230 231 233 234 235 236 237 238 240 240 239 238 237 236 236 236 238 239 239 240 242 244 244 242 242 243 243 244 246 248 249 250 250 251 252 254 254 254 253 253 253 254 254 254 255
25 46 90 170 200 206 207 207 206 207 209 211 214 217 220 221 222 222 220 218 218 218 217 216 216 218 221 222 219 217 219 222 224 226 226 226 226 226 226 227 228 230 231 233 235 237 239 240 241 242 242 241 240 238 238 237 237 238 238 239 242 243 242 240 240 241 243 246 248 250 250 250 251 251 251 252 251 250 250 251 251 252 253 253 254
31 48 67 91 141 189 204 207 208 211 214 214 214 215 217 218 220 222 223 223 223 223 221 220 220 221 223 225 225 223 222 223 224 225 226 226 227 227 227 228 228 229 230 232 234 236 238 239 240 241 241 241 240 240 239 238 237 236 237 238 239 239 239 238 239 241 243 245 247 247 248 249 250 250 250 251 251 250 250 250 252 253 254 255 255
24 39 56 69 84 115 165 188 199 207 213 216 219 222 223 222 221 220 220 220 221 221 221 221 222 224 226 228 230 231 231 231 230 228 227 226 227 227 228 229 230 230 231 233 234 235 237 237 237 238 239 239 239 239 239 238 238 238 239 238 237 237 237 238 239 241 243 245 246 246 248 250 252 252 252 252 252 252 251 251 252 252 253 254 255
7 24 43 59 71 83 99 125 159 182 195 204 212 218 222 223 223 223 223 223 223 222 221 221 221 222 223 225 227 230 231 233 233 232 230 229 228 228 228 229 230 231 232 233 234 235 235 236 236 236 237 237 238 238 238 237 237 239 240 240 238 237 237 239 240 242 244 247 248 249 250 251 252 252 252 252 252 252 251 252 253 254 254 255 256
338 354 17 41 60 74 83 93 108 127 146 164 178 189 198 206 212 217 222 224 225 226 226 226 225 224 223 224 225 226 228 229 230 231 231 230 229 230 230 231 232 232 233 233 234 234 235 235 236 236 236 237 237 237 237 237 237 239 240 241 240 240 240 241 242 244 246 248 248 249 249 250 250 250 251 251 251 252 253 255 256 256 256 257 258
312 323 336 354 25 59 77 85 93 103 116 130 146 161 172 183 192 200 208 215 219 222 224 226 227 227 226 225 225 226 227 229 230 230 231 231 230 231 232 233 235 236 237 238 238 239 239 239 239 238 238 238 238 238 237 238 238 239 240 241 241 242 243 243 244 245 246 247 247 248 248 249 250 250 251 251 252 253 255 256 257 257 258 259 260
295 301 308 314 321 340 34 74 87 98 109 118 133 149 161 172 182 189 196 204 211 216 220 223 225 226 226 226 226 227 228 229 230 231 231 231 231 230 230 231 233 235 237 239 241 242 243 243 243 243 242 241 241 241 240 240 240 240 241 241 243 244 244 245 246 246 247 247 247 248 249 250 250 250 250 251 252 254 255 256 258 259 260 260 261
286 288 292 297 302 306 308 313 322 129 138 140 149 158 164 174 183 188 193 200 206 211 216 219 221 223 224 225 225 226 227 228 229 230 231 232 232 231 229 229 229 230 232 234 237 239 240 242 242 243 243 242 242 242 242 241 241 240 241 242 243 244 244 245 246 247 248 248 248 249 249 249 249 250 250 251 253 254 256 257 258 259 260 261 262
280 279 279 281 285 289 292 293 287 274 254 233 214 201 193 194 197 200 206 212 216 219 221 222 221 221 221 222 222 223 225 226 227 228 229 230 231 231 231 230 230 230 230 232 233 235 236 237 238 239 239 240 240 240 240 240 239 238 239 239 240 241 242 243 244 245 246 247 247 247 248 248 249 250 251 252 254 256 257 258 259 260 261 262 263
277 275 273 271 270 272 275 278 279 276 269 259 247 236 226 218 213 212 214 218 222 225 226 226 226 224 222 221 221 220 220 221 222 223 224 225 226 227 228 229 229 230 230 232 233 234 235 236 236 237 237 238 238 238 238 237 236 236 236 237 238 239 240 241 242 243 244 245 246 247 248 249 250 251 253 254 255 256 257 258 259 260 261 262 263
Height
5390 5389 5387 5384 5382 5380 5379 5380 5383 5388 5394 5400 5407 5414 5421 5427 5435 5442 5449 5456 5464 5471 5477 5483 5490 5496 5503 5508 5513 5521 5528 5532 5536 5542 5548 5553 5557 5562 5566 5570 5575 5579 5583 5587 5591 5594 5598 5602 5605 5609 5613 5618 5622 5625 5629 5633 5637 5641 5644 5648 5651 5654 5657 5659 5661 5663 5666 5669 5671 5673 5676 5679 5682 5685 5688 5690 5693 5695 5697 5700 5702 5704 5706 5708 5710
5384 5382 5380 5378 5375 5374 5373 5373 5376 5379 5384 5391 5398 5406 5412 5419 5427 5434 5441 5448 5455 5463 5470 5476 5483 5489 5494 5500 5505 5513 5521 5527 5531 5536 5541 5547 5551 5556 5561 5566 5570 5574 5578 5582 5587 5590 5594 5598 5601 5606 5610 5615 5619 5623 5626 5630 5634 5638 5642 5645 5648 5651 5653 5655 5658 5660 5663 5666 5668 5670 5673 5676 5679 5682 5684 5687 5689 5691 5693 5695 5698 5700 5703 5705 5707
5378 5375 5373 5371 5369 5367 5366 5367 5368 5371 5375 5382 5389 5396 5403 5410 5419 5427 5434 5440 5447 5455 5462 5469 5474 5480 5486 5492 5498 5505 5514 5521 5525 5530 5536 5541 5546 5551 5556 5560 5565 5570 5574 5578 5582 5586 5589 5593 5597 5602 5607 5611 5616 5620 5624 5627 5631 5635 5639 5642 5644 5646 5648 5651 5654 5657 5659 5662 5664 5667 5670 5673 5675 5678 5680 5682 5684 5686 5689 5691 5694 5696 5699 5701 5703
5370 5368 5366 5364 5362 5360 5359 5360 5361 5364 5368 5373 5380 5387 5394 5402 5411 5419 5426 5433 5440 5447 5454 5460 5466 5472 5478 5484 5490 5498 5506 5514 5519 5524 5530 5535 5540 5545 5550 5555 5560 5565 5570 5574 5578 5582 5585 5589 5594 5598 5603 5608 5612 5617 5620 5624 5628 5631 5635 5637 5640 5642 5644 5647 5650 5652 5655 5657 5660 5663 5666 5668 5671 5673 5675 5678 5680 5682 5685 5687 5689 5692 5694 5697 5698
5363 5360 5358 5357 5355 5354 5353 5353 5354 5356 5361 5366 5371 5377 5385 5393 5402 5411 5417 5425 5432 5439 5446 5453 5457 5462 5469 5477 5483 5491 5499 5507 5513 5519 5524 5529 5534 5539 5544 5549 5555 5560 5565 5570 5574 5578 5582 5586 5591 5595 5600 5604 5608 5613 5617 5621 5624 5627 5630 5633 5636 5638 5641 5643 5646 5648 5650 5653 5656 5658 5661 5663 5666 5668 5671 5673 5676 5678 5681 5683 5686 5688 5690 5692 5694
5354 5353 5352 5350 5348 5347 5346 5345 5345 5348 5352 5358 5364 5369 5376 5385 5394 5402 5409 5416 5425 5432 5438 5446 5450 5454 5462 5470 5477 5484 5492 5500 5507 5514 5519 5524 5529 5533 5537 5543 5549 5555 5560 5565 5569 5573 5578 5582 5587 5591 5596 5600 5605 5609 5614 5617 5621 5624 5626 5629 5632 5635 5637 5640 5642 5644 5646 5649 5652 5654 5657 5660 5662 5665 5667 5670 5672 5674 5677 5679 5682 5684 5686 5688 5690
5345 5344 5344 5343 5342 5340 5338 5337 5337 5338 5343 5349 5356 5362 5369 5377 5385 5393 5401 5408 5417 5424 5431 5438 5444 5449 5457 5464 5470 5478 5486 5492 5499 5507 5513 5518 5523 5528 5532 5537 5543 5549 5555 5560 5564 5568 5572 5577 5581 5585 5591 5596 5600 5605 5610 5614 5617 5620 5622 5625 5628 5631 5634 5636 5639 5641 5643 5645 5648 5651 5654 5656 5658 5661 5663 5666 5667 5670 5672 5675 5678 5680 5682 5684 5686
5337 5336 5335 5335 5334 5333 5331 5330 5329 5330 5334 5340 5348 5356 5363 5370 5378 5385 5393 5401 5409 5416 5423 5431 5437 5443 5450 5458 5464 5472 5479 5485 5492 5500 5506 5511 5517 5523 5527 5531 5536 5542 5548 5554 5558 5562 5567 5571 5576 5580 5585 5590 5595 5600 5605 5609 5612 5615 5618 5621 5623 5626 5629 5632 5635 5637 5639 5642 5644 5647 5650 5652 5654 5657 5659 5662 5665 5668 5670 5672 5674 5676 5678 5679 5681
5328 5327 5326 5326 5326 5324 5323 5322 5321 5322 5325 5332 5340 5349 5356 5364 5371 5379 5386 5394 5401 5408 5416 5423 5429 5436 5444 5451 5457 5464 5470 5477 5486 5493 5499 5505 5511 5516 5521 5525 5531 5537 5542 5547 5551 5556 5561 5566 5571 5575 5580 5585 5589 5594 5599 5603 5607 5611 5614 5616 5619 5622 5625 5628 5631 5633 5636 5638 5641 5643 5646 5648 5651 5654 5657 5660 5664 5666 5666 5668 5670 5671 5672 5674 5676
5318 5317 5317 5316 5315 5315 5315 5314 5313 5313 5317 5323 5331 5340 5348 5356 5364 5372 5379 5387 5394 5401 5409 5416 5422 5428 5436 5443 5449 5456 5463 5471 5480 5487 5493 5498 5504 5509 5514 5519 5525 5531 5536 5540 5545 5550 5556 5560 5565 5570 5575 5579 5583 5588 5592 5597 5601 5605 5608 5612 5615 5618 5621 5624 5627 5629 5632 5635 5637 5640 5643 5645 5648 5651 5654 5657 5659 5659 5661 5663 5665 5666 5667 5669 5670
5308 5307 5306 5305 5305 5306 5306 5305 5304 5305 5309 5315 5322 5330 5338 5347 5356 5365 5372 5379 5387 5394 5401 5409 5416 5422 5429 5435 5442 5450 5458 5466 5474 5481 5487 5493 5497 5501 5507 5513 5518 5524 5529 5533 5539 5545 5550 5555 5560 5565 5569 5574 5578 5583 5587 5592 5596 5599 5603 5606 5610 5613 5616 5620 5623 5625 5628 5630 5633 5636 5639 5641 5645 5647 5649 5651 5652 5654 5656 5658 5659 5660 5662 5664 5666
5297 5295 5294 5293 5294 5295 5297 5297 5296 5297 5301 5307 5314 5321 5328 5338 5348 5357 5364 5372 5380 5388 5395 5402 5409 5416 5423 5429 5436 5445 5453 5460 5467 5474 5481 5487 5492 5496 5502 5507 5512 5517 5521 5527 5533 5539 5544 5549 5554 5559 5564 5569 5573 5577 5582 5586 5590 5594 5597 5601 5604 5607 5610 5613 5617 5620 5623 5626 5628 5631 5634 5637 5640 5642 5644 5646 5647 5649 5650 5651 5652 5654 5656 5658 5660
5284 5283 5281 5281 5282 5285 5287 5288 5288 5290 5293 5299 5307 5313 5320 5330 5339 5348 5357 5365 5373 5383 5389 5395 5403 5410 5417 5423 5431 5440 5447 5453 5460 5468 5474 5481 5487 5492 5497 5502 5506 5510 5515 5521 5526 5532 5537 5542 5546 5552 5558 5563 5567 5571 5576 5580 5584 5588 5591 5595 5598 5601 5604 5607 5611 5614 5617 5620 5622 5625 5629 5633 5635 5638 5640 5641 5642 5642 5643 5645 5647 5649 5651 5653 5654
5271 5270 5269 5270 5272 5275 5278 5280 5281 5282 5286 5292 5300 5307 5315 5323 5332 5341 5349 5358 5368 5377 5383 5389 5396 5404 5411 5418 5425 5434 5441 5447 5454 5461 5467 5474 5480 5486 5492 5497 5502 5505 5510 5516 5521 5525 5530 5535 5540 5546 5551 5555 5560 5565 5570 5574 5578 5582 5585 5588 5591 5594 5597 5601 5605 5608 5611 5613 5616 5620 5623 5627 5630 5634 5635 5635 5635 5636 5638 5640 5642 5644 5646 5647 5648
5258 5258 5258 5260 5263 5266 5269 5271 5273 5275 5279 5286 5294 5302 5310 5318 5326 5335 5343 5352 5363 5371 5376 5382 5390 5397 5405 5412 5419 5427 5436 5442 5448 5454 5460 5467 5474 5481 5486 5491 5496 5501 5505 5509 5514 5520 5525 5530 5534 5540 5544 5549 5554 5559 5563 5568 5572 5576 5579 5583 5586 5589 5592 5596 5600 5604 5606 5609 5613 5616 5619 5621 5624 5625 5626 5627 5629 5630 5631 5633 5635 5637 5638 5639 5641
5248 5248 5249 5251 5255 5258 5261 5263 5265 5269 5274 5281 5290 5298 5306 5313 5321 5330 5338 5348 5357 5364 5370 5377 5384 5392 5399 5406 5413 5422 5430 5437 5442 5448 5455 5462 5468 5474 5479 5485 5491 5496 5500 5504 5508 5514 5519 5524 5529 5534 5539 5543 5547 5552 5556 5561 5565 5569 5573 5577 5580 5583 5587 5591 5595 5599 5601 5604 5608 5611 5613 5614 5616 5617 5618 5620 5622 5623 5623 5624 5625 5627 5629 5631 5632
5239 5239 5241 5245 5248 5252 5254 5256 5259 5263 5269 5277 5286 5294 5302 5309 5317 5326 5334 5343 5352 5359 5366 5373 5380 5387 5394 5401 5408 5417 5424 5431 5437 5443 5449 5456 5462 5468 5474 5480 5486 5492 5497 5500 5504 5508 5512 5517 5522 5528 5533 5537 5540 5545 5550 5554 5558 5562 5567 5571 5574 5577 5581 5585 5588 5591 5594 5597 5600 5602 5604 5605 5607 5610 5612 5613 5614 5614 5615 5616 5619 5622 5624 5626 5628
5233 5234 5236 5240 5243 5246 5248 5250 5253 5258 5265 5273 5281 5290 5298 5306 5314 5322 5330 5339 5347 5355 5361 5368 5376 5383 5390 5396 5404 5412 5418 5425 5431 5437 5443 5450 5456 5463 5469 5475 5480 5486 5491 5496 5499 5502 5506 5510 5515 5520 5525 5530 5534 5539 5543 5548 5552 5556 5560 5564 5567 5570 5574 5577 5580 5584 5588 5591 5593 5595 5597 5599 5601 5604 5605 5605 5606 5607 5609 5612 5616 5618 5620 5622 5625
5231 5232 5234 5237 5239 5241 5243 5245 5249 5255 5262 5270 5277 5286 5295 5304 5312 5320 5327 5335 5343 5350 5357 5364 5372 5379 5386 5393 5399 5405 5412 5418 5424 5431 5437 5444 5451 5457 5462 5469 5475 5480 5485 5490 5495 5499 5502 5505 5509 5514 5519 5523 5527 5532 5537 5541 5546 5549 5553 5557 5560 5564 5567 5570 5574 5578 5582 5585 5588 5590 5593 5594 5596 5598 5599 5598 5600 5602 5605 5608 5610 5612 5614 5616 5618
5232 5232 5233 5234 5236 5237 5239 5242 5246 5253 5260 5268 5276 5284 5293 5302 5310 5317 5324 5332 5339 5346 5354 5361 5368 5376 5382 5388 5394 5400 5407 5413 5420 5426 5432 5439 5445 5451 5456 5463 5470 5476 5481 5485 5490 5495 5499 5502 5505 5509 5513 5517 5521 5526 5531 5535 5539 5543 5546 5550 5554 5558 5561 5564 5568 5573 5576 5580 5583 5585 5586 5587 5589 5590 5591 5592 5594 5597 5599 5601 5603 5606 5608 5610 5611
5233 5233 5233 5233 5234 5235 5237 5240 5245 5252 5260 5267 5275 5283 5292 5300 5308 5315 5322 5329 5336 5343 5351 5358 5365 5372 5378 5384 5390 5397 5403 5409 5415 5421 5427 5433 5439 5445 5451 5459 5465 5471 5475 5480 5484 5489 5494 5499 5503 5505 5508 5512 5516 5520 5523 5528 5533 5536 5540 5545 5549 5552 5555 5559 5563 5567 5570 5573 5575 5576 5578 5579 5580 5581 5583 5585 5588 5591 5593 5595 5598 5601 5602 5603 5605
5234 5233 5232 5232 5232 5233 5236 5240 5246 5253 5259 5266 5273 5281 5289 5298 5305 5312 5319 5326 5333 5340 5347 5355 5362 5368 5374 5380 5387 5393 5399 5405 5411 5416 5421 5427 5433 5440 5447 5454 5460 5464 5469 5474 5479 5484 5489 5494 5499 5502 5504 5508 5511 5514 5518 5522 5527 5531 5536 5540 5543 5546 5549 5553 5556 5559 5562 5565 5567 5569 5570 5571 5573 5574 5576 5579 5582 5584 5587 5590 5593 5594 5595 5597 5599
5234 5233 5232 5232 5231 5233 5236 5241 5247 5253 5258 5264 5271 5279 5286 5295 5302 5310 5317 5323 5330 5338 5345 5352 5359 5365 5371 5377 5383 5388 5395 5401 5406 5411 5416 5422 5428 5434 5441 5447 5452 5458 5463 5469 5475 5480 5483 5487 5492 5496 5500 5504 5507 5509 5513 5517 5520 5525 5531 5535 5538 5541 5543 5545 5548 5551 5555 5557 5559 5562 5563 5564 5566 5568 5571 5574 5577 5579 5582 5585 5587 5587 5588 5590 5591
5233 5232 5231 5231 5232 5234 5237 5242 5248 5254 5259 5265 5271 5278 5285 5292 5300 5307 5314 5321 5328 5335 5342 5349 5355 5361 5368 5373 5378 5384 5390 5396 5401 5406 5411 5416 5422 5429 5435 5440 5446 5452 5458 5463 5468 5473 5477 5482 5486 5490 5494 5499 5503 5505 5509 5512 5515 5519 5524 5528 5531 5534 5535 5537 5541 5544 5547 5549 5552 5554 5556 5557 5561 5564 5567 5571 5574 5574 5575 5577 5578 5579 5580 5581 5583
5233 5232 5231 5232 5233 5236 5240 5244 5249 5254 5259 5265 5271 5277 5283 5291 5297 5305 5312 5319 5325 5332 5339 5345 5351 5357 5364 5369 5374 5380 5385 5391 5396 5401 5406 5411 5416 5422 5428 5433 5440 5446 5451 5456 5462 5467 5471 5476 5479 5483 5488 5493 5497 5500 5504 5508 5512 5515 5518 5521 5524 5526 5527 5530 5534 5536 5539 5542 5545 5547 5550 5553 5556 5559 5563 5565 5565 5564 5565 5567 5569 5571 5572 5573 5575
5235 5234 5233 5234 5236 5239 5243 5246 5250 5254 5259 5264 5269 5274 5281 5288 5295 5302 5309 5316 5323 5329 5335 5342 5348 5353 5359 5365 5370 5375 5380 5385 5390 5395 5400 5405 5410 5415 5421 5427 5434 5440 5444 5450 5455 5459 5464 5468 5472 5476 5480 5484 5488 5493 5498 5504 5507 5509 5511 5514 5516 5518 5519 5522 5525 5527 5531 5535 5538 5542 5546 5549 5551 5553 5555 5554 5554 5555 5558 5560 5562 5563 5565 5566 5568
5238 5238 5238 5239 5240 5243 5246 5248 5251 5255 5259 5263 5267 5273 5279 5287 5293 5299 5306 5313 5319 5326 5332 5338 5344 5349 5355 5360 5365 5370 5374 5379 5384 5389 5394 5399 5404 5409 5414 5420 5426 5432 5437 5442 5447 5452 5456 5461 5465 5468 5472 5475 5479 5485 5491 5496 5499 5502 5504 5506 5509 5510 5511 5514 5518 5521 5525 5528 5532 5536 5540 5542 5542 5543 5544 5545 5546 5549 5552 5553 5554 5556 5558 5559 5561
5242 5242 5242 5243 5244 5245 5246 5249 5252 5256 5260 5263 5267 5272 5279 5286 5292 5298 5304 5310 5316 5322 5328 5334 5340 5345 5350 5354 5359 5364 5369 5374 5380 5385 5390 5394 5398 5403 5408 5414 5420 5425 5431 5436 5441 5445 5449 5452 5456 5459 5462 5466 5471 5476 5481 5486 5489 5493 5496 5498 5501 5503 5504 5507 5511 5514 5517 5520 5524 5528 5531 5532 5533 5534 5536 5538 5540 5542 5544 5545 5546 5548 5550 5551 5552
5244 5244 5244 5245 5246 5246 5247 5249 5252 5256 5260 5263 5267 5272 5278 5284 5290 5296 5302 5307 5312 5317 5322 5328 5333 5338 5343 5348 5353 5359 5364 5370 5376 5380 5384 5387 5391 5396 5402 5408 5413 5419 5424 5428 5433 5436 5440 5443 5446 5450 5454 5459 5464 5468 5472 5476 5480 5483 5486 5489 5492 5495 5496 5498 5501 5505 5509 5512 5516 5519 5521 5522 5524 5527 5530 5533 5534 5534 5535 5537 5538 5540 5542 5543 5545
5246 5246 5246 5246 5247 5248 5249 5250 5253 5256 5259 5263 5267 5272 5277 5283 5288 5294 5299 5304 5309 5314 5318 5322 5327 5331 5336 5342 5347 5353 5359 5364 5368 5372 5376 5380 5384 5389 5395 5401 5406 5410 5415 5419 5423 5427 5431 5435 5439 5443 5447 5452 5456 5460 5464 5468 5472 5476 5479 5482 5484 5486 5488 5490 5494 5499 5504 5506 5509 5511 5513 5515 5517 5520 5524 5526 5526 5526 5527 5528 5530 5533 5534 5535 5537
5247 5247 5247 5248 5249 5250 5251 5252 5254 5256 5259 5263 5266 5271 5276 5281 5286 5291 5296 5301 5305 5310 5314 5317 5321 5326 5331 5335 5340 5345 5351 5355 5360 5364 5369 5373 5378 5383 5389 5394 5399 5403 5407 5411 5415 5419 5423 5428 5432 5437 5441 5445 5450 5454 5458 5462 5467 5471 5473 5476 5479 5480 5482 5486 5490 5495 5497 5499 5501 5503 5505 5507 5510 5514 5517 5519 5518 5518 5519 5520 5522 5524 5526 5527 5529
5248 5247 5248 5249 5250 5251 5252 5254 5256 5258 5260 5263 5266 5270 5274 5279 5284 5289 5293 5298 5302 5306 5310 5313 5317 5321 5325 5330 5334 5339 5344 5349 5354 5359 5363 5368 5373 5379 5384 5388 5392 5396 5400 5403 5407 5412 5417 5423 5428 5433 5437 5442 5446 5450 5453 5457 5461 5464 5467 5470 5472 5475 5478 5483 5487 5490 5491 5492 5495 5497 5499 5501 5503 5506 5509 5511 5510 5510 5511 5512 5514 5516 5518 5519 5520
5248 5247 5247 5248 5250 5252 5253 5256 5257 5259 5261 5263 5265 5268 5272 5277 5282 5287 5291 5296 5299 5302 5305 5308 5312 5315 5320 5324 5329 5334 5338 5343 5348 5353 5358 5363 5368 5373 5377 5381 5385 5389 5392 5396 5401 5406 5411 5416 5421 5426 5431 5436 5440 5443 5447 5451 5453 5456 5458 5461 5465 5469 5473 5477 5479 5481 5482 5485 5488 5490 5492 5494 5496 5498 5501 5503 5502 5502 5503 5505 5507 5508 5509 5510 5511
5248 5247 5247 5248 5249 5251 5253 5255 5258 5260 5262 5264 5265 5268 5271 5276 5280 5285 5289 5293 5297 5299 5301 5304 5307 5310 5314 5318 5323 5328 5333 5337 5342 5347 5352 5357 5362 5366 5370 5374 5377 5381 5386 5392 5397 5401 5405 5409 5413 5417 5422 5426 5430 5434 5439 5442 5444 5446 5449 5453 5457 5461 5464 5466 5468 5470 5473 5475 5478 5481 5483 5486 5488 5490 5492 5493 5493 5494 5496 5497 5498 5499 5500 5501 5502
5247 5247 5247 5248 5249 5250 5252 5254 5256 5258 5260 5262 5264 5267 5270 5274 5279 5283 5287 5290 5293 5295 5297 5299 5302 5306 5309 5313 5317 5322 5327 5332 5337 5341 5346 5350 5355 5359 5362 5366 5371 5376 5382 5387 5391 5394 5398 5402 5405 5409 5413 5417 5420 5424 5428 5431 5434 5437 5440 5444 5447 5451 5454 5456 5459 5461 5464 5467 5470 5472 5475 5478 5480 5483 5484 5484 5485 5487 5488 5488 5489 5490 5491 5493 5494
5246 5246 5247 5248 5249 5250 5251 5253 5255 5256 5259 5261 5263 5265 5269 5273 5277 5281 5284 5287 5290 5292 5294 5296 5299 5302 5306 5310 5314 5318 5322 5327 5332 5336 5341 5345 5349 5352 5356 5361 5366 5371 5376 5380 5384 5387 5391 5394 5397 5401 5404 5408 5412 5415 5419 5422 5425 5429 5432 5435 5438 5442 5445 5448 5451 5453 5456 5459 5461 5463 5465 5468 5471 5473 5475 5475 5477 5478 5479 5479 5480 5481 5482 5483 5483
5245 5245 5246 5246 5247 5249 5250 5251 5253 5255 5257 5259 5262 5265 5268 5271 5275 5278 5281 5284 5287 5290 5292 5295 5297 5300 5303 5307 5311 5314 5318 5322 5326 5330 5334 5338 5341 5345 5350 5355 5359 5364 5368 5373 5376 5380 5383 5387 5390 5393 5396 5400 5404 5407 5411 5414 5417 5420 5423 5426 5430 5433 5437 5440 5442 5443 5446 5449 5451 5454 5456 5459 5461 5463 5464 5466 5467 5468 5469 5470 5471 5472 5472 5472 5472
5244 5243 5243 5244 5245 5247 5248 5250 5252 5254 5256 5259 5262 5265 5267 5269 5272 5275 5278 5281 5284 5287 5289 5292 5295 5297 5300 5303 5307 5310 5313 5316 5319 5322 5326 5329 5333 5338 5343 5348 5353 5357 5362 5365 5369 5372 5375 5379 5382 5386 5389 5393 5396 5399 5402 5405 5409 5411 5414 5418 5421 5425 5428 5430 5431 5433 5437 5439 5442 5444 5445 5448 5450 5452 5454 5455 5457 5458 5459 5460 5461 5462 5462 5462 5462
5243 5242 5241 5242 5243 5244 5246 5248 5250 5252 5255 5257 5260 5263 5265 5267 5269 5271 5274 5277 5280 5283 5286 5289 5292 5294 5297 5300 5302 5305 5308 5311 5314 5318 5321 5325 5329 5334 5338 5342 5346 5350 5354 5357 5360 5363 5367 5370 5374 5377 5381 5384 5387 5390 5393 5396 5400 5403 5406 5409 5412 5415 5419 5421 5422 5424 5427 5430 5431 5433 5435 5437 5440 5442 5443 5444 5446 5448 5449 5450 5450 5451 5452 5452 5453
5243 5241 5240 5241 5242 5243 5244 5246 5248 5250 5253 5255 5257 5260 5262 5264 5266 5268 5270 5273 5276 5279 5282 5285 5287 5290 5293 5295 5298 5300 5303 5306 5310 5313 5317 5321 5325 5329 5332 5335 5339 5343 5347 5350 5353 5356 5359 5362 5365 5368 5371 5374 5377 5381 5383 5386 5389 5393 5397 5400 5403 5406 5410 5413 5415 5417 5418 5419 5421 5423 5425 5428 5429 5431 5432 5435 5436 5437 5438 5439 5440 5441 5442 5442 5443
5244 5241 5239 5240 5241 5242 5243 5245 5246 5248 5251 5253 5255 5257 5259 5261 5263 5265 5267 5270 5272 5275 5278 5280 5282 5285 5288 5290 5293 5295 5298 5301 5305 5308 5311 5315 5319 5322 5325 5329 5332 5336 5340 5343 5346 5349 5351 5354 5357 5360 5363 5365 5368 5371 5374 5376 5380 5384 5388 5392 5395 5398 5401 5404 5406 5407 5408 5409 5411 5413 5415 5417 5419 5421 5423 5424 5425 5426 5427 5428 5429 5430 5430 5430 5431
5246 5243 5240 5239 5240 5241 5242 5243 5245 5247 5248 5250 5252 5254 5255 5258 5260 5262 5264 5266 5268 5270 5273 5275 5277 5279 5282 5285 5288 5290 5293 5296 5299 5302 5305 5309 5312 5315 5318 5322 5325 5329 5332 5335 5338 5341 5344 5347 5349 5352 5355 5357 5360 5362 5365 5368 5371 5376 5379 5383 5386 5389 5392 5395 5396 5397 5398 5399 5401 5403 5405 5407 5409 5411 5412 5413 5413 5414 5415 5416 5417 5418 5418 5419 5420
5249 5245 5242 5240 5239 5240 5240 5241 5242 5244 5245 5246 5248 5250 5251 5253 5254 5257 5259 5261 5264 5266 5268 5271 5273 5275 5277 5279 5282 5285 5288 5291 5293 5296 5298 5301 5304 5307 5311 5314 5317 5321 5324 5326 5329 5332 5335 5338 5341 5343 5346 5349 5351 5353 5356 5359 5363 5367 5370 5374 5377 5380 5382 5383 5385 5386 5388 5390 5391 5393 5395 5396 5398 5399 5400 5400 5401 5402 5404 5405 5406 5407 5408 5408 5410
5253 5249 5245 5242 5240 5239 5239 5240 5240 5241 5242 5243 5244 5245 5246 5248 5249 5251 5252 5254 5257 5259 5262 5264 5267 5270 5272 5274 5277 5279 5282 5285 5288 5290 5292 5294 5297 5299 5302 5305 5309 5312 5314 5317 5320 5323 5326 5329 5332 5334 5337 5339 5342 5344 5347 5350 5354 5357 5361 5365 5367 5369 5370 5372 5374 5376 5378 5380 5381 5383 5385 5386 5387 5388 5388 5389 5391 5392 5394 5395 5396 5397 5398 5398 5399
5255 5252 5248 5245 5243 5241 5240 5239 5239 5239 5239 5240 5241 5241 5242 5244 5245 5247 5248 5250 5251 5253 5255 5258 5260 5263 5266 5269 5271 5273 5276 5279 5281 5284 5286 5289 5291 5293 5295 5297 5300 5303 5305 5308 5311 5314 5317 5320 5323 5325 5328 5331 5333 5336 5338 5341 5345 5348 5351 5354 5356 5358 5360 5362 5364 5367 5369 5370 5372 5373 5374 5376 5377 5378 5379 5380 5381 5382 5383 5385 5386 5386 5387 5387 5388
5255 5253 5251 5248 5245 5243 5241 5240 5239 5238 5238 5238 5239 5240 5240 5241 5242 5244 5246 5247 5248 5250 5251 5253 5255 5258 5260 5263 5265 5267 5270 5272 5275 5278 5280 5282 5285 5287 5289 5291 5293 5295 5297 5300 5303 5305 5308 5311 5313 5316 5319 5322 5324 5327 5329 5332 5335 5338 5341 5343 5346 5348 5350 5352 5355 5357 5358 5360 5361 5363 5364 5365 5367 5367 5368 5370 5370 5372 5373 5374 5375 5376 5376 5376 5377
5254 5253 5251 5249 5247 5245 5243 5242 5240 5239 5238 5238 5239 5239 5240 5240 5241 5242 5243 5244 5246 5247 5248 5250 5251 5253 5255 5257 5259 5262 5264 5266 5268 5271 5273 5276 5278 5280 5282 5285 5287 5288 5291 5293 5295 5297 5300 5302 5304 5307 5310 5312 5315 5317 5320 5322 5325 5328 5331 5333 5335 5338 5340 5342 5344 5346 5347 5349 5351 5352 5354 5355 5356 5357 5358 5360 5360 5361 5363 5363 5364 5364 5365 5365 5366
5253 5252 5251 5249 5247 5246 5244 5243 5242 5241 5240 5240 5239 5239 5240 5240 5240 5241 5241 5242 5243 5244 5245 5246 5247 5249 5250 5252 5254 5256 5258 5260 5261 5263 5265 5267 5270 5272 5274 5276 5279 5281 5283 5285 5287 5289 5292 5294 5296 5299 5301 5304 5306 5309 5311 5313 5316 5318 5321 5323 5325 5328 5330 5332 5334 5336 5338 5339 5341 5343 5344 5345 5346 5347 5348 5349 5349 5350 5351 5351 5351 5352 5352 5352 5352
5251 5250 5249 5248 5247 5245 5244 5243 5242 5242 5241 5241 5240 5240 5239 5239 5239 5240 5240 5240 5241 5241 5242 5243 5243 5244 5246 5247 5248 5250 5251 5253 5255 5256 5258 5259 5261 5263 5265 5267 5269 5271 5274 5276 5278 5281 5283 5285 5288 5290 5293 5295 5298 5300 5303 5305 5307 5309 5312 5314 5316 5318 5321 5323 5324 5326 5328 5330 5331 5333 5333 5335 5336 5336 5337 5338 5338 5338 5338 5338 5338 5338 5338 5338 5339
5249 5248 5247 5246 5246 5245 5244 5242 5242 5241 5240 5240 5239 5239 5239 5239 5238 5238 5238 5238 5239 5239 5240 5240 5241 5242 5242 5243 5244 5245 5246 5247 5249 5250 5251 5253 5254 5256 5257 5259 5261 5263 5265 5267 5269 5271 5274 5276 5278 5281 5283 5286 5288 5291 5293 5296 5299 5301 5303 5305 5307 5310 5312 5314 5315 5317 5318 5319 5321 5322 5323 5324 5325 5326 5326 5327 5327 5326 5326 5326 5326 5325 5325 5325 5325
5245 5245 5245 5244 5243 5243 5242 5242 5241 5240 5240 5239 5238 5238 5238 5238 5237 5237 5237 5237 5237 5237 5238 5238 5239 5239 5240 5241 5241 5242 5243 5243 5244 5245 5246 5247 5249 5250 5251 5252 5254 5256 5257 5259 5261 5263 5265 5267 5269 5272 5274 5276 5279 5281 5284 5286 5289 5292 5294 5296 5298 5300 5302 5304 5305 5307 5308 5309 5310 5311 5312 5313 5314 5314 5314 5315 5315 5314 5314 5314 5313 5313 5313 5313 5312